Regional Weather Roundup
Issued by NWS Albany, NY

Home | Current Version | Previous Version | Graphics & Text | Print | Product List | Glossary On
Versions: 1 2 3 4 5 6 7 8 9 10 11 12 13 14 15 16 17 18 19 20 21 22 23 24 25 26 27 28
000
ASUS41 KALY 160210
RWRALY

NEW YORK STATE HOURLY WEATHER ROUNDUP
NATIONAL WEATHER SERVICE ALBANY NY
900 PM EST FRI DEC 15 2017

NOTE: "FAIR" INDICATES FEW OR NO CLOUDS BELOW 12,000 FEET WITH NO
SIGNIFICANT WEATHER AND/OR NO OBSTRUCTIONS TO VISIBILITY.

NYZ032-033-038>043-046>054-057>066-NYZ062>081-082-084-160300-
EAST


CITY           SKY/WX    TMP DP  RH WIND       PRES   REMARKS
ALBANY         CLOUDY    21  11  65 S9        29.86F WCI  11
GLENS FALLS    CLOUDY    13  10  88 CALM      29.84F
POUGHKEEPSIE   CLOUDY    22  18  85 CALM      29.89S FOG
NEWBURGH       CLOUDY    19  19 100 W7        29.88S WCI  10
MONTGOMERY     PTCLDY    18  15  88 SW6       29.86F WCI  10
WHITE PLAINS   CLOUDY    22  19  89 W5        29.87S WCI  16
ISLIP          LGT SNOW  26  24  92 W7        29.89S FOG     WCI  18
NEW YORK CITY  CLOUDY    27  19  72 W10       29.91S WCI  17
CENTRAL PARK   CLOUDY    25  20  81 W6        29.93R WCI  18
$$

NYZ005>009-017-018-044>046-055-056-160300-
CENTRAL


CITY           SKY/WX    TMP DP  RH WIND       PRES   REMARKS
FULTON         LGT SNOW  22  16  78 S8        29.78S WCI  12
SYRACUSE       MOCLDY    22  15  75 SW7       29.79S WCI  13
ROME           CLOUDY    18  13  80 SE6       29.82F WCI  10
ELMIRA         CLOUDY    24  16  71 SW5       29.80S WCI  18
BINGHAMTON     CLOUDY    18  12  77 SW8       29.75S WCI   8
MONTICELLO     FLURRIES  16  14  92 W3        29.80S
$$

NYZ026>034-041>043-087-160300-
NORTH


CITY           SKY/WX    TMP DP  RH WIND       PRES   REMARKS
WATERTOWN      CLOUDY    21  14  74 S7        29.75F WCI  12
FORT DRUM      NOT AVBL
OGDENSBURG     FAIR      20  17  88 S3        29.76F
MASSENA        LGT SNOW  16  14  92 E3        29.79F FOG
SARANAC LAKE   CLOUDY    13  10  88 MISG      29.68F
PLATTSBURGH    CLOUDY    20  12  71 S5        29.80S WCI  13
$$

NYZ001>004-010>016-019>021-085-160300-
WEST


CITY           SKY/WX    TMP DP  RH WIND       PRES   REMARKS
NIAGARA FALLS  CLOUDY    27  17  66 W23G31    29.77R WCI  12
BUFFALO        CLOUDY    24  18  77 W16G25    29.78R WCI  11
DUNKIRK        LGT SNOW  27  16  63 W21G36    29.82R WCI  13
JAMESTOWN      LGT SNOW  19  18  93 SW15      29.78R FOG     WCI   5
WELLSVILLE     LGT SNOW  22  13  68 W13G25    29.72S WCI  10
ROCHESTER      LGT SNOW  23  21  92 SW12      29.77S FOG     WCI  12
PENN YAN       MOCLDY    24  14  65 SW15G23   29.76F WCI  11
$$

             KEY
       WCI = WIND CHILL INDEX
       VSB = VISIBILITY
       HX  = HEAT INDEX
$$




USA.gov is the U.S. government's official web portal to all federal, state and local government web resources and services.